This demonstration page uses our WeatherBlox Daily Observations layout. Learn more.

Hourly Observations for May 24, 2019

Temp ( °F °C ) Dew Point ( °F °C ) Humidity (%) Winds ( mph kmh ) Pressure ( in mb ) Visibility ( mi km ) Precip ( " mm )
12:30 am 00:30 Cloudy with Nearby Thunderstorms 56 13.3 54 12.2 93 93 ENE 14 22 29.96 1014 7 11.26538 0.04 1.016
12:54 am 00:54 Mostly Cloudy 56 13.3 54 12.2 93 93 E 13 20 29.92 1013 10 16.0934 0.04 1.016
1:54 am 01:54 Cloudy 57 13.9 55 12.8 93 93 E 6 9 29.91 1013 10 16.0934 0 0
2:54 am 02:54 Cloudy 57 13.9 56 13.3 96 96 ESE 6 9 29.88 1012 10 16.0934 0 0
3:01 am 03:01 Cloudy 58 14.4 56 13.3 93 93 ESE 7 11 29.88 1012 10 16.0934 0 0
3:35 am 03:35 Mostly Cloudy 59 15 57 13.9 93 93 SE 10 17 29.85 1011 10 16.0934 0 0
3:54 am 03:54 Mostly Cloudy with Light Rain 61 16.1 58 14.4 90 90 SE 12 19 29.85 1011 10 16.0934 0 0.0254
4:06 am 04:06 Cloudy with Light Rain 61 16.1 58 14.4 90 90 SSE 9 15 29.86 1011 10 16.0934 0.01 0.254
4:20 am 04:20 Cloudy with Light Rain 61 16.1 58 14.4 90 90 SSE 9 15 29.86 1011 10 16.0934 0.02 0.508
4:33 am 04:33 Cloudy with Nearby Thunderstorms 61 16.1 59 15 93 93 SE 6 9 29.85 1011 6 9.65604 0.04 1.016
4:45 am 04:45 Cloudy with Thunderstorms 61 16.1 59 15 93 93 ESE 20 31 29.78 1009 6 9.65604 0.08 2.032
4:54 am 04:54 Mostly Cloudy with Nearby Thunderstorms 62 16.7 59 15 90 90 ESE 15 24 29.8 1009 8 12.87472 0.1 2.54
5:11 am 05:11 Partly Cloudy 63 17.2 60 15.6 90 90 SSE 8 13 29.8 1009 10 16.0934 0 0.0254
5:54 am 05:54 Mostly Clear 61 16.1 59 15 93 93 S 7 11 29.82 1010 10 16.0934 0 0.0254
6:54 am 06:54 Mostly Cloudy 63 17.2 60 15.6 90 90 SSW 6 9 29.81 1010 10 16.0934 0 0
7:12 am 07:12 Mostly Cloudy 63 17.2 60 15.6 90 90 S 9 15 29.82 1010 10 16.0934 0 0
7:43 am 07:43 Cloudy 63 17.2 60 15.6 90 90 S 15 24 29.85 1011 10 16.0934 0 0
7:54 am 07:54 Cloudy 64 17.8 60 15.6 87 87 S 16 26 29.86 1011 10 16.0934 0 0
8:54 am 08:54 Cloudy 64 17.8 61 16.1 90 90 SW 7 11 29.88 1012 10 16.0934 0 0
9:23 am 09:23 Cloudy 66 18.9 62 16.7 87 87 SW 10 17 29.84 1011 10 16.0934 0 0
9:38 am 09:38 Cloudy 65 18.3 60 15.6 84 84 W 12 19 29.84 1011 10 16.0934 0 0
9:54 am 09:54 Cloudy 66 18.9 59 15 78 78 W 14 22 29.86 1011 10 16.0934 0 0
10:20 am 10:20 Cloudy 64 17.8 58 14.4 81 81 W 12 19 29.87 1011 10 16.0934 0 0
10:54 am 10:54 Cloudy 64 17.8 58 14.4 81 81 W 12 19 29.88 1012 10 16.0934 0 0
11:41 am 11:41 Cloudy 67 19.4 58 14.4 73 73 WSW 10 17 29.88 1012 10 16.0934 0 0
11:54 am 11:54 Mostly Cloudy 66 18.9 57 13.9 73 73 VRB 7 11 29.9 1013 10 16.0934 0 0
12:31 pm 12:31 Partly Cloudy 69 20.6 59 15 70 70 W 9 15 29.87 1012 10 16.0934 0 0
12:54 pm 12:54 Sunny 70 21.1 58 14.4 66 66 WSW 10 17 29.9 1012 10 16.0934 0 0
1:54 pm 13:54 Sunny 73 22.8 57 13.9 57 57 WSW 9 15 29.88 1012 10 16.0934 0 0
2:54 pm 14:54 Sunny 75 23.9 57 13.9 54 54 WSW 12 19 29.87 1012 10 16.0934 0 0
3:54 pm 15:54 Sunny 76 24.4 57 13.9 52 52 SSW 15 24 29.85 1011 10 16.0934 0 0
4:54 pm 16:54 Sunny 78 25.6 55 12.8 45 45 SW 14 22 29.82 1010 10 16.0934 0 0
5:54 pm 17:54 Sunny 77 25 57 13.9 50 50 SSW 9 15 29.8 1009 10 16.0934 0 0
6:54 pm 18:54 Sunny 76 24.4 56 13.3 50 50 S 13 20 29.79 1009 10 16.0934 0 0
7:54 pm 19:54 Sunny 74 23.3 56 13.3 54 54 SSW 7 11 29.78 1008 10 16.0934 0 0
8:54 pm 20:54 Clear 69 20.6 56 13.3 63 63 SSW 5 7 29.79 1009 10 16.0934 0 0
9:54 pm 21:54 Clear 68 20 57 13.9 68 68 Calm 29.8 1009 10 16.0934 0 0
10:54 pm 22:54 Clear 66 18.9 57 13.9 73 73 Calm 29.83 1010 10 16.0934 0 0
11:54 pm 23:54 Clear 63 17.2 57 13.9 81 81 SSE 6 9 29.82 1010 10 16.0934 0 0

Powered by AerisWeather